Watford City, ND

3:34 AM CST on December 11, 2019 (GMT -0600)
Watford City

Weather History for KS25 - October, 2019

Change the Weather History Date:

Tuesday, October 15, 2019

  Actual Average (KISN) Record (KISN)
Temperature  
Mean Temperature 34 °F -  
Max Temperature 41 °F 55 °F 82 °F (1953)
Min Temperature 26 °F 29 °F 14 °F (1992)
Degree Days  
Heating Degree Days 32    
Moisture  
Dew Point 33 °F    
Average Humidity 87    
Maximum Humidity 100    
Minimum Humidity 70    
Precipitation  
Precipitation 0.00 in - - ()
Sea Level Pressure  
Sea Level Pressure 30.14 in    
Wind  
Wind Speed 12 mph (WNW)    
Max Wind Speed 22 mph    
Max Gust Speed 31 mph    
Visibility 10 miles    
Events      
Averages and records for this station are not official NWS values.
T = Trace of Precipitation, MM = Missing Value Source: NWS Daily Summary

Daily Weather History Graph

Daily Weather History Graph

Search for Another Location

Airport or City:

Astronomy

Oct. 15, 2019 Rise Set
Actual Time 8:11 AM CDT 7:04 PM CDT
Civil Twilight 7:40 AM CDT 7:36 PM CDT
Nautical Twilight 7:04 AM CDT 8:11 PM CDT
Astronomical Twilight 6:28 AM CDT 8:47 PM CDT
Moon 8:20 PM CDT (10/15) 9:48 AM CDT (10/15)
Length of Visible Light 11h 55m
Length of Day
10h 53m
Full, 97% of the Moon is Illuminated
Oct 15
Full
Oct 21
Last Quarter
Oct 27
New
Nov 4
First Quarter
Nov 12
Full

Hourly Weather History & Observations

Time (CDT) Temp. Windchill Dew Point Humidity Pressure Visibility Wind Dir Wind Speed Gust Speed Precip Events Conditions
12:15 AM 35.6 °F 30.7 °F 35.6 °F 100% 29.96 in 10.0 mi West 5.8 mph - N/A   Overcast
12:35 AM 37.4 °F 29.8 °F 37.4 °F 100% 29.96 in 10.0 mi West 11.5 mph 18.4 mph N/A   Mostly Cloudy
12:55 AM 37.4 °F 29.8 °F 35.6 °F 93% 29.96 in 10.0 mi WNW 11.5 mph 18.4 mph N/A   Overcast
1:15 AM 37.4 °F 29.3 °F 35.6 °F 93% 29.97 in 10.0 mi West 12.7 mph - N/A   Overcast
1:35 AM 37.4 °F 29.3 °F 35.6 °F 93% 29.97 in 10.0 mi WNW 12.7 mph - N/A   Mostly Cloudy
1:55 AM 37.4 °F 28.2 °F 35.6 °F 93% 29.98 in 10.0 mi WNW 16.1 mph 23.0 mph N/A   Overcast
2:15 AM 37.4 °F 29.3 °F 30.2 °F 75% 29.99 in 10.0 mi NW 12.7 mph 19.6 mph N/A   Overcast
2:35 AM 37.4 °F 29.8 °F 30.2 °F 75% 29.99 in 10.0 mi WNW 11.5 mph - N/A   Overcast
2:55 AM 37.4 °F 28.5 °F 32.0 °F 81% 30.00 in 10.0 mi WNW 15.0 mph 21.9 mph N/A   Overcast
3:15 AM 37.4 °F 27.8 °F 30.2 °F 75% 30.00 in 10.0 mi WNW 17.3 mph 26.5 mph N/A   Overcast
3:35 AM 37.4 °F 26.6 °F 30.2 °F 75% 30.01 in 10.0 mi WNW 21.9 mph 31.1 mph N/A   Overcast
3:55 AM 37.4 °F 27.5 °F 32.0 °F 81% 30.01 in 10.0 mi WNW 18.4 mph 29.9 mph N/A   Overcast
4:15 AM 37.4 °F 27.2 °F 32.0 °F 81% 30.02 in 10.0 mi WNW 19.6 mph 26.5 mph N/A   Overcast
4:35 AM 35.6 °F 25.9 °F 32.0 °F 87% 30.03 in 10.0 mi WNW 16.1 mph 23.0 mph N/A   Overcast
4:55 AM 35.6 °F 26.6 °F 32.0 °F 87% 30.03 in 10.0 mi WNW 13.8 mph 24.2 mph N/A   Overcast
5:15 AM 35.6 °F 24.8 °F 32.0 °F 87% 30.03 in 10.0 mi WNW 19.6 mph 26.5 mph N/A   Overcast
5:35 AM 35.6 °F 25.9 °F 32.0 °F 87% 30.04 in 10.0 mi WNW 16.1 mph 23.0 mph N/A   Overcast
5:55 AM 35.6 °F 25.9 °F 32.0 °F 87% 30.05 in 10.0 mi NW 16.1 mph 21.9 mph N/A   Overcast
6:15 AM 35.6 °F 25.2 °F 33.8 °F 93% 30.05 in 10.0 mi NW 18.4 mph - N/A   Overcast
6:35 AM 35.6 °F 25.2 °F 33.8 °F 93% 30.06 in 10.0 mi NW 18.4 mph 26.5 mph N/A   Overcast
6:55 AM 35.6 °F 25.2 °F 33.8 °F 93% 30.07 in 10.0 mi NW 18.4 mph 25.3 mph N/A   Overcast
7:15 AM 35.6 °F 25.9 °F 33.8 °F 93% 30.08 in 10.0 mi NW 16.1 mph 23.0 mph N/A   Overcast
7:35 AM 35.6 °F 25.5 °F 33.8 °F 93% 30.09 in 10.0 mi NW 17.3 mph - N/A   Overcast
7:55 AM 35.6 °F 26.2 °F 33.8 °F 93% 30.10 in 10.0 mi NW 15.0 mph 21.9 mph N/A   Overcast
8:15 AM 35.6 °F 26.2 °F 35.6 °F 100% 30.12 in 10.0 mi NW 15.0 mph 21.9 mph N/A   Overcast
8:35 AM 35.6 °F 27.1 °F 35.6 °F 100% 30.13 in 8.0 mi NW 12.7 mph 18.4 mph N/A   Overcast
8:55 AM 35.6 °F 26.6 °F 35.6 °F 100% 30.14 in 6.0 mi NW 13.8 mph 20.7 mph N/A   Overcast
9:15 AM 35.6 °F 26.6 °F 35.6 °F 100% 30.15 in 9.0 mi NW 13.8 mph - N/A   Overcast
9:35 AM 35.6 °F 25.9 °F 35.6 °F 100% 30.16 in 10.0 mi NW 16.1 mph - N/A   Overcast
9:55 AM 35.6 °F 26.6 °F 35.6 °F 100% 30.17 in 10.0 mi NW 13.8 mph 20.7 mph N/A   Overcast
10:15 AM 35.6 °F 25.5 °F 35.6 °F 100% 30.19 in 10.0 mi NW 17.3 mph - N/A   Overcast
10:35 AM 37.4 °F 28.9 °F 35.6 °F 93% 30.19 in 10.0 mi NW 13.8 mph 19.6 mph N/A   Overcast
10:55 AM 37.4 °F 29.3 °F 35.6 °F 93% 30.21 in 10.0 mi NW 12.7 mph 21.9 mph N/A   Overcast
11:15 AM 37.4 °F 27.8 °F 35.6 °F 93% 30.21 in 10.0 mi NW 17.3 mph - N/A   Overcast
11:35 AM 37.4 °F 28.5 °F 35.6 °F 93% 30.22 in 10.0 mi NW 15.0 mph - N/A   Overcast
11:55 AM 37.4 °F 28.9 °F 35.6 °F 93% 30.22 in 10.0 mi NNW 13.8 mph 20.7 mph N/A   Overcast
12:15 PM 37.4 °F 28.5 °F 35.6 °F 93% 30.22 in 10.0 mi NW 15.0 mph - N/A   Overcast
12:35 PM 37.4 °F 28.2 °F 35.6 °F 93% 30.22 in 10.0 mi NW 16.1 mph 21.9 mph N/A   Overcast
12:55 PM 37.4 °F 27.8 °F 33.8 °F 87% 30.22 in 10.0 mi NNW 17.3 mph - N/A   Overcast
1:15 PM 37.4 °F 30.3 °F 33.8 °F 87% 30.23 in 10.0 mi NW 10.4 mph 17.3 mph N/A   Overcast
1:35 PM 39.2 °F 30.5 °F 33.8 °F 81% 30.22 in 10.0 mi NNW 16.1 mph - N/A   Overcast
1:55 PM 39.2 °F 30.8 °F 33.8 °F 81% 30.22 in 10.0 mi NNW 15.0 mph - N/A   Overcast
2:15 PM 39.2 °F 32.0 °F 33.8 °F 81% 30.22 in 10.0 mi North 11.5 mph 18.4 mph N/A   Overcast
2:35 PM 39.2 °F 31.2 °F 33.8 °F 81% 30.22 in 10.0 mi NNW 13.8 mph - N/A   Overcast
2:55 PM 39.2 °F 32.5 °F 33.8 °F 81% 30.22 in 10.0 mi NNW 10.4 mph - N/A   Overcast
3:15 PM 39.2 °F 33.0 °F 33.8 °F 81% 30.22 in 10.0 mi NW 9.2 mph - N/A   Overcast
3:35 PM 41.0 °F 36.4 °F 33.8 °F 76% 30.22 in 10.0 mi NNW 6.9 mph 12.7 mph N/A   Overcast
3:55 PM 41.0 °F 36.4 °F 33.8 °F 76% 30.21 in 10.0 mi NNW 6.9 mph - N/A   Overcast
4:15 PM 41.0 °F 35.8 °F 32.0 °F 70% 30.22 in 10.0 mi NW 8.1 mph - N/A   Overcast
4:35 PM 41.0 °F 36.4 °F 32.0 °F 70% 30.22 in 10.0 mi NW 6.9 mph - N/A   Overcast
4:55 PM 41.0 °F 36.4 °F 32.0 °F 70% 30.22 in 10.0 mi NW 6.9 mph - N/A   Overcast
5:15 PM 41.0 °F 36.4 °F 32.0 °F 70% 30.22 in 10.0 mi NW 6.9 mph - N/A   Mostly Cloudy
5:35 PM 41.0 °F 37.1 °F 32.0 °F 70% 30.22 in 10.0 mi NW 5.8 mph - N/A   Mostly Cloudy
5:55 PM 41.0 °F 38.0 °F 32.0 °F 70% 30.21 in 10.0 mi Variable 4.6 mph - N/A   Scattered Clouds
6:15 PM 41.0 °F 38.0 °F 32.0 °F 70% 30.21 in 10.0 mi WSW 4.6 mph - N/A   Unknown
6:35 PM 41.0 °F 39.0 °F 32.0 °F 70% 30.21 in 10.0 mi SW 3.5 mph - N/A   Unknown
6:55 PM 39.2 °F 35.9 °F 32.0 °F 75% 30.21 in 10.0 mi SSW 4.6 mph - N/A   Overcast
7:15 PM 39.2 °F 37.0 °F 32.0 °F 75% 30.21 in 6.0 mi SSW 3.5 mph - N/A   Haze
7:35 PM 37.4 °F - 32.0 °F 81% 30.21 in 10.0 mi Calm Calm - N/A   Overcast
7:55 PM 37.4 °F - 32.0 °F 81% 30.20 in 10.0 mi Calm Calm - N/A   Mostly Cloudy
8:15 PM 37.4 °F 33.8 °F 32.0 °F 81% 30.20 in 10.0 mi South 4.6 mph - N/A   Mostly Cloudy
8:35 PM 33.8 °F 27.7 °F 30.2 °F 87% 30.19 in 10.0 mi South 6.9 mph - N/A   Partly Cloudy
8:55 PM 32.0 °F 28.7 °F 30.2 °F 93% 30.19 in 10.0 mi SW 3.5 mph - N/A   Clear
9:15 PM 32.0 °F 25.6 °F 30.2 °F 93% 30.19 in 10.0 mi SSW 6.9 mph - N/A   Clear
9:35 PM 32.0 °F - 30.2 °F 93% 30.19 in 10.0 mi Calm Calm - N/A   Clear
9:55 PM 32.0 °F 27.5 °F 30.2 °F 93% 30.19 in 10.0 mi South 4.6 mph - N/A   Clear
10:15 PM 30.2 °F - 28.4 °F 93% 30.19 in 10.0 mi Calm Calm - N/A   Clear
10:35 PM 30.2 °F 25.4 °F 28.4 °F 93% 30.19 in 10.0 mi SE 4.6 mph - N/A   Clear
10:55 PM 28.4 °F - 28.4 °F 100% 30.18 in 10.0 mi Calm Calm - N/A   Clear
11:15 PM 28.4 °F - 28.4 °F 100% 30.18 in 10.0 mi Calm Calm - N/A   Clear
11:35 PM 26.6 °F - 26.6 °F 100% 30.17 in 10.0 mi Calm Calm - N/A   Clear
11:55 PM 28.4 °F - 28.4 °F 100% 30.17 in 10.0 mi Calm Calm - N/A   Clear